Location: Eitze
(52.9840°N, 9.6894°E)
Time: 11:57:35
(UTC+00:00)

Cosmos 1707 - Visible Passes

Search period start: 12 April 2026 00:00
Search period end: 22 April 2026 00:00
Orbit: 354 x 359 km, 82.5° (Epoch: 12 April)

Date Brightness Start Highest point End Pass type
(mag) Time Alt. Az. Time Alt. Az. Time Alt. Az.
12 Apr 3.2 02:04:00 33° ESE 02:04:33 36° E 02:07:17 10° NNE visible
12 Apr 4.1 03:35:45 11° W 03:37:11 14° WNW 03:38:52 10° NNW visible
13 Apr 1.9 02:31:53 51° SW 02:32:26 67° WNW 02:35:21 10° N visible
14 Apr 4.2 01:27:55 21° E 01:28:02 21° E 01:30:19 10° NE visible
14 Apr 3.4 02:59:39 21° W 03:00:23 23° WNW 03:02:48 10° NNW visible
15 Apr 2.2 01:55:35 61° ESE 01:55:38 61° E 01:58:32 10° NNE visible
16 Apr 5.0 00:51:25 12° E 00:51:25 12° E 00:52:31 10° ENE visible
16 Apr 2.5 02:23:08 39° W 02:23:19 40° WNW 02:26:07 10° N visible
17 Apr 3.6 01:18:53 30° E 01:18:53 30° E 01:21:13 10° NNE visible
17 Apr 3.9 02:50:36 15° W 02:51:07 16° WNW 02:53:01 10° NNW visible
18 Apr 2.0 01:46:14 71° NNW 01:46:14 71° NNW 01:48:55 10° N visible
19 Apr 4.6 00:41:48 17° ENE 00:41:48 17° ENE 00:43:18 10° NE visible
19 Apr 3.3 02:13:30 26° WNW 02:13:30 26° WNW 02:16:02 10° N visible
20 Apr 3.2 01:08:57 41° ENE 01:08:57 41° ENE 01:11:13 10° NNE visible
20 Apr 4.4 02:40:39 11° WNW 02:41:05 11° WNW 02:42:06 10° NW visible
21 Apr 2.6 01:36:01 45° NW 01:36:01 45° NW 01:38:27 10° N visible
